TimeMST,TemperatureF,Dew PointF,Humidity,Sea Level PressureIn,VisibilityMPH,Wind Direction,Wind SpeedMPH,Gust SpeedMPH,PrecipitationIn,Events,Conditions,WindDirDegrees,DateUTC
12:04 AM,19.9,15.1,81,29.72,10.0,Calm,Calm,-,N/A,,Scattered Clouds,0,2013-12-03 07:04:00
12:51 AM,19.0,14.0,81,29.81,10.0,WNW,4.6,-,N/A,,Mostly Cloudy,290,2013-12-03 07:51:00
1:51 AM,18.0,12.9,81,29.82,10.0,NW,4.6,-,N/A,,Clear,310,2013-12-03 08:51:00
2:51 AM,15.1,12.0,88,29.85,10.0,Calm,Calm,-,N/A,,Clear,0,2013-12-03 09:51:00
3:51 AM,16.0,12.0,84,29.85,10.0,ENE,3.5,-,N/A,,Mostly Cloudy,70,2013-12-03 10:51:00
4:51 AM,17.1,12.0,81,29.84,10.0,Calm,Calm,-,N/A,,Overcast,0,2013-12-03 11:51:00
5:51 AM,16.0,10.9,81,29.86,10.0,Calm,Calm,-,N/A,,Overcast,0,2013-12-03 12:51:00
6:51 AM,15.1,10.0,80,29.86,10.0,Calm,Calm,-,N/A,,Scattered Clouds,0,2013-12-03 13:51:00
7:49 AM,15.8,12.2,86,29.74,1.8,Calm,Calm,-,0.00,Snow,Light Snow,0,2013-12-03 14:49:00
7:51 AM,16.0,12.9,88,29.88,1.5,Calm,Calm,-,0.00,Snow,Light Snow,0,2013-12-03 14:51:00
8:07 AM,17.1,12.9,84,29.74,1.0,Calm,Calm,-,0.01,Snow,Light Snow,0,2013-12-03 15:07:00
8:21 AM,17.1,12.9,84,29.75,0.8,Calm,Calm,-,0.01,Snow,Light Snow,0,2013-12-03 15:21:00
8:27 AM,17.1,12.9,84,29.75,1.0,Calm,Calm,-,0.02,Snow,Light Snow,0,2013-12-03 15:27:00
8:37 AM,17.1,12.9,84,29.75,1.5,Calm,Calm,-,0.02,Snow,Light Snow,0,2013-12-03 15:37:00
8:48 AM,17.6,12.2,79,29.76,2.5,Calm,Calm,-,0.02,Snow,Light Snow,0,2013-12-03 15:48:00
8:51 AM,17.1,12.9,84,29.90,3.0,Calm,Calm,-,0.02,Snow,Light Snow,0,2013-12-03 15:51:00
8:59 AM,17.1,12.9,84,29.76,4.0,Calm,Calm,-,0.00,,Overcast,0,2013-12-03 15:59:00
9:10 AM,17.1,12.9,84,29.76,2.5,Calm,Calm,-,0.00,Snow,Light Snow,0,2013-12-03 16:10:00
9:31 AM,17.1,12.9,84,29.76,5.0,Calm,Calm,-,0.00,Snow,Light Snow,0,2013-12-03 16:31:00
9:37 AM,17.1,12.9,84,29.76,8.0,Calm,Calm,-,0.00,,Overcast,0,2013-12-03 16:37:00
9:51 AM,17.1,12.9,84,29.90,10.0,Calm,Calm,-,0.00,,Mostly Cloudy,0,2013-12-03 16:51:00
9:59 AM,17.1,12.9,84,29.76,10.0,Calm,Calm,-,N/A,,Scattered Clouds,0,2013-12-03 16:59:00
10:51 AM,19.0,15.1,85,29.91,10.0,East,3.5,-,N/A,,Mostly Cloudy,100,2013-12-03 17:51:00
11:23 AM,21.9,12.0,66,29.77,10.0,North,3.5,-,N/A,,Scattered Clouds,360,2013-12-03 18:23:00
11:51 AM,24.1,12.0,60,29.88,10.0,Variable,3.5,-,N/A,,Clear,0,2013-12-03 18:51:00
12:51 PM,21.9,14.0,72,29.88,10.0,West,3.5,-,N/A,,Partly Cloudy,260,2013-12-03 19:51:00
1:21 PM,23.0,15.1,72,29.74,10.0,Variable,6.9,-,0.00,Snow,Light Snow,0,2013-12-03 20:21:00
1:36 PM,21.9,15.1,75,29.74,9.0,WNW,8.1,-,0.00,,Overcast,290,2013-12-03 20:36:00
1:48 PM,21.2,14.0,74,29.74,8.0,Variable,5.8,-,0.00,Snow,Light Snow,0,2013-12-03 20:48:00
1:51 PM,21.9,14.0,72,29.88,8.0,NNE,8.1,-,0.00,Snow,Light Snow,30,2013-12-03 20:51:00
1:58 PM,21.0,14.0,74,29.74,2.5,NNE,10.4,-,0.00,Snow,Light Snow,30,2013-12-03 20:58:00
2:05 PM,21.0,14.0,74,29.74,1.2,North,4.6,-,0.00,Snow,Light Snow,360,2013-12-03 21:05:00
2:10 PM,21.0,14.0,74,29.74,3.0,North,3.5,-,0.00,Snow,Light Snow,360,2013-12-03 21:10:00
2:51 PM,19.9,12.9,74,29.90,10.0,SW,3.5,-,0.00,,Clear,230,2013-12-03 21:51:00
3:42 PM,19.9,14.0,78,29.76,9.0,West,5.8,-,0.00,,Overcast,280,2013-12-03 22:42:00
3:51 PM,19.9,14.0,78,29.92,10.0,WNW,5.8,-,0.00,,Overcast,290,2013-12-03 22:51:00
4:51 PM,19.0,10.0,68,29.93,10.0,North,8.1,-,N/A,,Clear,350,2013-12-03 23:51:00
5:51 PM,19.0,7.0,59,29.96,10.0,North,6.9,-,N/A,,Partly Cloudy,10,2013-12-04 00:51:00
6:51 PM,17.1,5.0,59,29.99,10.0,NNE,9.2,-,N/A,,Mostly Cloudy,20,2013-12-04 01:51:00
7:51 PM,16.0,3.9,59,29.99,10.0,NNE,4.6,-,N/A,,Clear,20,2013-12-04 02:51:00
8:51 PM,14.0,6.1,71,29.99,10.0,Calm,Calm,-,N/A,,Scattered Clouds,0,2013-12-04 03:51:00
9:51 PM,14.0,3.0,62,29.99,10.0,North,10.4,-,N/A,,Mostly Cloudy,350,2013-12-04 04:51:00
10:51 PM,12.9,1.0,59,30.00,10.0,North,9.2,-,N/A,,Partly Cloudy,10,2013-12-04 05:51:00
11:51 PM,12.0,1.9,64,30.00,10.0,North,9.2,-,N/A,,Clear,350,2013-12-04 06:51:00